Paris, IL

8:31 PM CST on January 17, 2018 (GMT -0600)
Edgar County

Weather History for KPRG - August, 2013

Change the Weather History Date:

Monday, August 26, 2013

  Actual Average (KHUF) Record (KHUF)
Temperature  
Mean Temperature 74 °F -  
Max Temperature 86 °F 84 °F 93 °F (1959)
Min Temperature 61 °F 61 °F 48 °F (1958)
Cooling Degree Days 8    
Growing Degree Days 24 (Base 50)    
Moisture  
Dew Point 70 °F    
Average Humidity 83    
Maximum Humidity 97    
Minimum Humidity 59    
Precipitation  
Precipitation 0.00 in - - ()
Sea Level Pressure  
Sea Level Pressure 30.17 in    
Wind  
Wind Speed 4 mph (SW)    
Max Wind Speed 8 mph    
Max Gust Speed -    
Visibility 8 miles    
Events      
Averages and records for this station are not official NWS values.
T = Trace of Precipitation, MM = Missing Value Source: NWS Daily Summary

Daily Weather History Graph

Daily Weather History Graph

Search for Another Location

Airport or City:

Trip Planner

Search our weather history database for the weather conditions in past years. The results will help you decide how hot, cold, wet, or windy it might be!

Date:

Astronomy

Aug. 26, 2013 Rise Set
Actual Time 6:13 AM CDT 7:30 PM CDT
Civil Twilight 5:45 AM CDT 7:58 PM CDT
Nautical Twilight 5:11 AM CDT 8:32 PM CDT
Astronomical Twilight 4:36 AM CDT 9:07 PM CDT
Moon 10:42 PM CDT (8/26) 12:13 PM CDT (8/26)
Length of Visible Light 14h 13m
Length of Day
13h 17m
Waning Gibbous, 66% of the Moon is Illuminated
Aug 26
Waning Gibbous
Aug 28
Last Quarter
Sep 5
New
Sep 12
First Quarter
Sep 19
Full

Hourly Weather History & Observations

Time (CDT) Temp. Heat Index Dew Point Humidity Pressure Visibility Wind Dir Wind Speed Gust Speed Precip Events Conditions
12:15 AM 62.8 °F - 61.2 °F 94% 30.24 in 10.0 mi Calm Calm - N/A   Clear
12:35 AM 62.4 °F - 60.8 °F 94% 30.24 in 10.0 mi Calm Calm - N/A   Clear
12:55 AM 62.6 °F - 60.4 °F 93% 30.24 in 10.0 mi Calm Calm - N/A   Clear
1:15 AM 62.2 °F - 60.3 °F 93% 30.24 in 10.0 mi Calm Calm - N/A   Clear
1:35 AM 61.9 °F - 60.1 °F 94% 30.23 in 10.0 mi SE 3.5 mph - N/A   Clear
1:55 AM 62.1 °F - 60.3 °F 94% 30.22 in 10.0 mi Calm Calm - N/A   Clear
2:15 AM 62.8 °F - 61.0 °F 94% 30.21 in 10.0 mi Calm Calm - N/A   Clear
2:35 AM 62.4 °F - 60.4 °F 93% 30.21 in 10.0 mi Calm Calm - N/A   Clear
2:55 AM 63.5 °F - 61.3 °F 93% 30.20 in 10.0 mi South 4.6 mph - N/A   Clear
3:15 AM 65.8 °F - 64.2 °F 94% 30.21 in 7.0 mi SSW 5.8 mph - N/A   Clear
3:35 AM 68.9 °F - 66.6 °F 92% 30.20 in 7.0 mi SSW 5.8 mph - N/A   Clear
3:55 AM 68.9 °F - 66.7 °F 93% 30.20 in 7.0 mi SSW 6.9 mph - N/A   Clear
4:15 AM 68.9 °F - 66.7 °F 93% 30.21 in 7.0 mi SW 4.6 mph - N/A   Clear
4:35 AM 68.2 °F - 66.4 °F 94% 30.21 in 7.0 mi SSW 4.6 mph - N/A   Clear
4:55 AM 67.6 °F - 66.2 °F 95% 30.20 in 7.0 mi SSW 3.5 mph - N/A   Clear
5:15 AM 67.5 °F - 66.2 °F 96% 30.20 in 5.0 mi SW 4.6 mph - N/A   Clear
5:35 AM 68.2 °F - 67.1 °F 96% 30.21 in 5.0 mi SW 4.6 mph - N/A   Clear
5:55 AM 69.1 °F - 68.0 °F 96% 30.21 in 5.0 mi SW 5.8 mph - N/A   Clear
6:15 AM 69.4 °F - 68.4 °F 96% 30.22 in 3.0 mi SW 5.8 mph - N/A   Mist
6:35 AM 69.3 °F - 68.2 °F 96% 30.23 in 2.5 mi SW 4.6 mph - N/A   Mist
6:55 AM 69.6 °F - 68.7 °F 97% 30.24 in 2.5 mi SW 4.6 mph - N/A   Mist
7:15 AM 70.5 °F - 69.6 °F 97% 30.24 in 2.5 mi SW 4.6 mph - N/A   Clear
7:35 AM 71.6 °F - 70.7 °F 97% 30.24 in 2.5 mi SW 5.8 mph - N/A   Clear
7:55 AM 72.9 °F - 71.6 °F 96% 30.24 in 3.0 mi SW 6.9 mph - N/A   Clear
8:15 AM 74.5 °F - 72.5 °F 94% 30.24 in 4.0 mi SW 6.9 mph - N/A   Clear
8:35 AM 76.1 °F - 73.2 °F 91% 30.24 in 4.0 mi SW 6.9 mph - N/A   Clear
8:55 AM 77.2 °F - 73.4 °F 88% 30.24 in 5.0 mi WSW 6.9 mph - N/A   Clear
9:15 AM 78.3 °F - 73.9 °F 87% 30.23 in 5.0 mi WSW 8.1 mph - N/A   Clear
9:35 AM 79.2 °F - 74.1 °F 84% 30.23 in 5.0 mi WSW 8.1 mph - N/A   Haze
9:55 AM 80.6 °F 86.0 °F 75.0 °F 83% 30.24 in 5.0 mi WSW 6.9 mph - N/A   Haze
10:15 AM 81.3 °F 87.4 °F 75.0 °F 81% 30.23 in 7.0 mi West 4.6 mph - N/A   Clear
10:35 AM 82.6 °F 89.9 °F 75.6 °F 79% 30.23 in 7.0 mi WSW 8.1 mph - N/A   Clear
10:55 AM 83.1 °F 90.7 °F 75.2 °F 77% 30.22 in 7.0 mi West 3.5 mph - N/A   Clear
11:15 AM 84.2 °F 92.6 °F 75.6 °F 75% 30.21 in 7.0 mi West 5.8 mph - N/A   Clear
11:35 AM 84.4 °F 92.7 °F 75.4 °F 74% 30.21 in 7.0 mi SW 5.8 mph - N/A   Clear
11:55 AM 85.8 °F 94.6 °F 75.0 °F 70% 30.21 in 7.0 mi WSW 6.9 mph - N/A   Clear
12:15 PM 84.7 °F 92.1 °F 73.9 °F 70% 30.20 in 10.0 mi West 4.6 mph - N/A   Scattered Clouds
12:35 PM 85.8 °F 92.6 °F 73.0 °F 65% 30.20 in 10.0 mi West 5.8 mph - N/A   Scattered Clouds
12:55 PM 84.4 °F 90.0 °F 72.0 °F 66% 30.19 in 10.0 mi WSW 4.6 mph - N/A   Mostly Cloudy
1:15 PM 86.5 °F 91.8 °F 70.9 °F 59% 30.18 in 10.0 mi WSW 6.9 mph - N/A   Scattered Clouds
1:35 PM 86.4 °F 91.4 °F 70.7 °F 59% 30.17 in 10.0 mi WSW 6.9 mph - N/A   Clear
1:55 PM 86.0 °F 90.7 °F 70.3 °F 59% 30.17 in 10.0 mi SW 5.8 mph - N/A   Clear
2:15 PM 86.4 °F 92.2 °F 71.2 °F 61% 30.16 in 10.0 mi WSW 4.6 mph - N/A   Clear
2:35 PM 86.4 °F 92.2 °F 71.2 °F 61% 30.15 in 10.0 mi SSW 6.9 mph - N/A   Clear
2:55 PM 86.0 °F 91.8 °F 71.4 °F 62% 30.15 in 10.0 mi SW 4.6 mph - N/A   Clear
3:15 PM 85.5 °F 91.5 °F 72.1 °F 64% 30.14 in 10.0 mi SW 6.9 mph - N/A   Clear
3:35 PM 86.0 °F 92.2 °F 72.0 °F 63% 30.13 in 10.0 mi SW 4.6 mph - N/A   Clear
3:55 PM 86.2 °F 92.2 °F 71.6 °F 62% 30.12 in 10.0 mi SW 8.1 mph - N/A   Clear
4:15 PM 86.0 °F 91.8 °F 71.4 °F 62% 30.11 in 10.0 mi SW 4.6 mph - N/A   Clear
4:35 PM 86.4 °F 92.6 °F 72.0 °F 62% 30.11 in 10.0 mi WSW 6.9 mph - N/A   Clear
4:55 PM 85.1 °F 91.5 °F 72.5 °F 66% 30.11 in 10.0 mi WSW 4.6 mph - N/A   Clear
5:15 PM 86.0 °F 92.6 °F 72.7 °F 64% 30.11 in 10.0 mi WSW 3.5 mph - N/A   Clear
5:35 PM 85.3 °F 92.2 °F 73.2 °F 67% 30.11 in 10.0 mi SSW 4.6 mph - N/A   Clear
5:55 PM 84.4 °F 91.3 °F 73.6 °F 70% 30.10 in 10.0 mi SSW 3.5 mph - N/A   Clear
6:15 PM 83.5 °F 90.0 °F 73.6 °F 72% 30.10 in 10.0 mi SW 3.5 mph - N/A   Clear
6:35 PM 80.6 °F 85.4 °F 73.4 °F 79% 30.10 in 10.0 mi SW 5.8 mph - N/A   Clear
6:55 PM 79.3 °F - 72.3 °F 79% 30.09 in 10.0 mi SW 4.6 mph - N/A   Clear
7:15 PM 77.7 °F - 71.6 °F 81% 30.09 in 10.0 mi SSW 3.5 mph - N/A   Clear
7:35 PM 76.8 °F - 70.9 °F 82% 30.09 in 10.0 mi SSW 3.5 mph - N/A   Clear
7:55 PM 74.8 °F - 70.9 °F 87% 30.10 in 10.0 mi Calm Calm - N/A   Clear
8:15 PM 73.6 °F - 70.3 °F 90% 30.10 in 7.0 mi Calm Calm - N/A   Clear
8:35 PM 72.5 °F - 70.0 °F 92% 30.10 in 10.0 mi South 3.5 mph - N/A   Clear
8:55 PM 72.5 °F - 69.6 °F 91% 30.10 in 7.0 mi South 3.5 mph - N/A   Clear
9:15 PM 71.6 °F - 69.3 °F 92% 30.10 in 7.0 mi South 4.6 mph - N/A   Clear
9:35 PM 71.1 °F - 69.1 °F 93% 30.10 in 7.0 mi Calm Calm - N/A   Clear
9:55 PM 71.1 °F - 68.9 °F 93% 30.10 in 7.0 mi SSE 3.5 mph - N/A   Clear
10:15 PM 70.9 °F - 68.9 °F 93% 30.10 in 7.0 mi South 3.5 mph - N/A   Clear
10:35 PM 69.8 °F - 68.0 °F 94% 30.10 in 5.0 mi South 3.5 mph - N/A   Clear
10:55 PM 69.8 °F - 68.5 °F 96% 30.10 in 7.0 mi South 3.5 mph - N/A   Clear
11:15 PM 70.0 °F - 68.5 °F 95% 30.11 in 7.0 mi South 3.5 mph - N/A   Clear
11:35 PM 70.3 °F - 68.9 °F 95% 30.11 in 7.0 mi SSW 4.6 mph - N/A   Clear
11:55 PM 71.1 °F - 69.4 °F 95% 30.10 in 7.0 mi SSW 4.6 mph - N/A   Clear